When you browse on this site, cookies collect data to enhance your experience and personalize the content and advertising you see.
Visit our Privacy Policy to learn more. By continuing to use the site, you agree to this use of cookies and data.
  • In Spain
  • List of Countries
  • For 7 days
  • Water Temperature
  • Weather Map
  • Weather Widgets
  • user-avatar
    Login

    Hourly Weather Bulawayo

    Today, 23 October, Wednesday

    Time Temperature Precipitation Wind Pressure Humidity
    00:00 +20°C° 0 mm 5 mps 647 mmHg 72%
    01:00 +20°C° 0 mm 5 mps 647 mmHg 74%
    02:00 +20°C° 0 mm 4 mps 646 mmHg 76%
    03:00 +19°C° 0 mm 3 mps 646 mmHg 78%
    04:00 +19°C° 0 mm 2 mps 646 mmHg 80%
    05:00 +19°C° 0 mm 2 mps 646 mmHg 81%
    06:00 +21°C° 0 mm 3 mps 647 mmHg 67%
    07:00 +25°C° 0 mm 5 mps 648 mmHg 53%
    08:00 +28°C° 0 mm 6 mps 649 mmHg 39%
    09:00 +32°C° 0 mm 6 mps 649 mmHg 32%
    10:00 +35°C° 0 mm 6 mps 649 mmHg 25%
    11:00 +38°C° 0 mm 6 mps 649 mmHg 18%
    12:00 +37°C° 0 mm 5 mps 649 mmHg 18%
    13:00 +37°C° 0 mm 5 mps 648 mmHg 18%
    14:00 +36°C° 0 mm 4 mps 647 mmHg 18%
    15:00 +36°C° 0 mm 4 mps 647 mmHg 18%
    16:00 +36°C° 0 mm 3 mps 647 mmHg 18%
    17:00 +36°C° 0 mm 3 mps 647 mmHg 19%
    18:00 +32°C° 0 mm 2 mps 647 mmHg 23%
    19:00 +30°C° 0 mm 2 mps 647 mmHg 27%
    20:00 +27°C° 0 mm 1 mps 647 mmHg 31%
    21:00 +28°C° 0 mm 2 mps 647 mmHg 31%
    22:00 +28°C° 0 mm 2 mps 648 mmHg 30%
    23:00 +28°C° 0 mm 2 mps 648 mmHg 29%

    Tomorrow, 24 October, Thursday

    Time Temperature Precipitation Wind Pressure Humidity
    00:00 +28°C° 0 mm 3 mps 648 mmHg 31%
    01:00 +27°C° 0 mm 3 mps 647 mmHg 32%
    02:00 +27°C° 0 mm 4 mps 647 mmHg 34%
    03:00 +26°C° 0 mm 3 mps 647 mmHg 36%
    04:00 +25°C° 0 mm 3 mps 647 mmHg 38%
    05:00 +25°C° 0 mm 2 mps 647 mmHg 39%
    06:00 +27°C° 0 mm 3 mps 648 mmHg 35%
    07:00 +29°C° 0 mm 4 mps 649 mmHg 31%
    08:00 +32°C° 0 mm 5 mps 650 mmHg 27%
    09:00 +34°C° 0 mm 5 mps 650 mmHg 24%
    10:00 +36°C° 0 mm 4 mps 650 mmHg 20%
    11:00 +38°C° 0 mm 4 mps 651 mmHg 17%
    12:00 +37°C° 0 mm 4 mps 650 mmHg 17%
    13:00 +37°C° 0 mm 3 mps 649 mmHg 18%
    14:00 +37°C° 0 mm 3 mps 648 mmHg 18%
    15:00 +36°C° 0 mm 3 mps 648 mmHg 19%
    16:00 +36°C° 0 mm 3 mps 648 mmHg 19%
    17:00 +35°C° 0 mm 3 mps 647 mmHg 19%
    18:00 +33°C° 0 mm 3 mps 647 mmHg 22%
    19:00 +31°C° 0 mm 3 mps 647 mmHg 25%
    20:00 +29°C° 0 mm 3 mps 647 mmHg 28%
    21:00 +28°C° 0 mm 3 mps 648 mmHg 29%
    22:00 +28°C° 0 mm 3 mps 648 mmHg 30%
    23:00 +27°C° 0 mm 3 mps 648 mmHg 31%

    Day after tomorrow, 25 October, Friday

    Time Temperature Precipitation Wind Pressure Humidity
    00:00 +27°C° 0 mm 3 mps 648 mmHg 31%
    01:00 +26°C° 0 mm 3 mps 648 mmHg 31%
    02:00 +25°C° 0 mm 3 mps 647 mmHg 31%
    03:00 +24°C° 0 mm 3 mps 648 mmHg 32%
    04:00 +24°C° 0 mm 3 mps 648 mmHg 33%
    05:00 +24°C° 0 mm 3 mps 648 mmHg 34%
    06:00 +26°C° 0 mm 4 mps 649 mmHg 32%
    07:00 +29°C° 0 mm 5 mps 650 mmHg 29%
    08:00 +32°C° 0 mm 6 mps 651 mmHg 26%
    09:00 +34°C° 0 mm 5 mps 651 mmHg 23%
    10:00 +36°C° 0 mm 4 mps 651 mmHg 19%
    11:00 +40°C° 0 mm 4 mps 651 mmHg 16%
    12:00 +39°C° 0 mm 3 mps 650 mmHg 15%
    13:00 +39°C° 0 mm 3 mps 649 mmHg 14%
    14:00 +39°C° 0 mm 2 mps 649 mmHg 13%
    15:00 +39°C° 0 mm 2 mps 648 mmHg 13%
    16:00 +38°C° 0 mm 2 mps 648 mmHg 14%
    17:00 +38°C° 0 mm 2 mps 648 mmHg 14%
    18:00 +36°C° 0 mm 2 mps 648 mmHg 16%
    19:00 +34°C° 0 mm 2 mps 648 mmHg 19%
    20:00 +30°C° 0 mm 1 mps 647 mmHg 21%
    21:00 +29°C° 0 mm 2 mps 648 mmHg 23%
    22:00 +29°C° 0 mm 2 mps 648 mmHg 24%
    23:00 +28°C° 0 mm 2 mps 648 mmHg 25%

    26 October, Saturday

    Time Temperature Precipitation Wind Pressure Humidity
    00:00 +28°C° 0 mm 2 mps 647 mmHg 25%
    01:00 +27°C° 0 mm 3 mps 647 mmHg 25%
    02:00 +27°C° 0 mm 4 mps 647 mmHg 25%
    03:00 +26°C° 0 mm 4 mps 647 mmHg 27%
    04:00 +26°C° 0 mm 4 mps 647 mmHg 30%
    05:00 +25°C° 0 mm 4 mps 647 mmHg 32%
    06:00 +27°C° 0 mm 5 mps 648 mmHg 29%
    07:00 +30°C° 0 mm 5 mps 649 mmHg 25%
    08:00 +33°C° 0 mm 6 mps 650 mmHg 22%
    09:00 +35°C° 0 mm 5 mps 650 mmHg 20%
    10:00 +37°C° 0 mm 4 mps 650 mmHg 17%
    11:00 +39°C° 0 mm 3 mps 650 mmHg 15%
    12:00 +39°C° 0 mm 3 mps 650 mmHg 14%
    13:00 +39°C° 0 mm 2 mps 649 mmHg 14%
    14:00 +40°C° 0 mm 2 mps 648 mmHg 13%
    15:00 +39°C° 0 mm 2 mps 648 mmHg 13%
    16:00 +39°C° 0 mm 2 mps 647 mmHg 13%
    17:00 +38°C° 0 mm 2 mps 647 mmHg 13%
    18:00 +36°C° 0 mm 3 mps 647 mmHg 16%
    19:00 +34°C° 0 mm 3 mps 647 mmHg 18%
    20:00 +31°C° 0 mm 3 mps 647 mmHg 20%
    21:00 +31°C° 0 mm 3 mps 647 mmHg 22%
    22:00 +30°C° 0 mm 3 mps 647 mmHg 23%
    23:00 +29°C° 0 mm 3 mps 647 mmHg 25%

    27 October, Sunday

    Time Temperature Precipitation Wind Pressure Humidity
    00:00 +29°C° 0 mm 3 mps 647 mmHg 27%
    01:00 +28°C° 0 mm 3 mps 647 mmHg 29%
    02:00 +27°C° 0 mm 3 mps 647 mmHg 30%
    03:00 +27°C° 0 mm 3 mps 647 mmHg 32%
    04:00 +26°C° 0 mm 3 mps 647 mmHg 34%
    05:00 +25°C° 0 mm 3 mps 647 mmHg 36%
    06:00 +27°C° 0 mm 4 mps 648 mmHg 32%
    07:00 +29°C° 0 mm 5 mps 649 mmHg 28%
    08:00 +32°C° 0 mm 5 mps 649 mmHg 23%
    09:00 +34°C° 0 mm 5 mps 649 mmHg 21%
    10:00 +36°C° 0 mm 5 mps 649 mmHg 18%
    11:00 +40°C° 0 mm 4 mps 649 mmHg 16%
    12:00 +40°C° 0 mm 4 mps 649 mmHg 15%
    13:00 +39°C° 0 mm 3 mps 648 mmHg 15%
    14:00 +39°C° 0 mm 2 mps 647 mmHg 15%
    15:00 +38°C° 0 mm 3 mps 647 mmHg 16%
    16:00 +37°C° 0 mm 3 mps 646 mmHg 17%
    17:00 +36°C° 0 mm 3 mps 646 mmHg 18%
    18:00 +34°C° 0 mm 3 mps 646 mmHg 21%
    19:00 +32°C° 0 mm 2 mps 646 mmHg 23%
    20:00 +30°C° 0 mm 1 mps 646 mmHg 26%
    21:00 +29°C° 0 mm 1 mps 646 mmHg 27%
    22:00 +29°C° 0 mm 1 mps 646 mmHg 28%
    23:00 +28°C° 0 mm 1 mps 646 mmHg 29%

    28 October, Monday

    Time Temperature Precipitation Wind Pressure Humidity
    00:00 +28°C° 0 mm 1 mps 645 mmHg 30%
    01:00 +27°C° 0 mm 1 mps 645 mmHg 31%
    02:00 +26°C° 0 mm 1 mps 644 mmHg 32%
    03:00 +26°C° 0 mm 2 mps 644 mmHg 33%
    04:00 +26°C° 0 mm 2 mps 644 mmHg 33%
    05:00 +26°C° 0 mm 2 mps 645 mmHg 34%
    06:00 +28°C° 0 mm 3 mps 645 mmHg 29%
    07:00 +32°C° 0 mm 4 mps 646 mmHg 24%
    08:00 +34°C° 0 mm 6 mps 647 mmHg 19%
    09:00 +36°C° 0 mm 5 mps 647 mmHg 17%
    10:00 +38°C° 0 mm 4 mps 648 mmHg 15%
    11:00 +41°C° 0 mm 4 mps 648 mmHg 13%
    12:00 +41°C° 0 mm 4 mps 647 mmHg 12%
    13:00 +42°C° 0 mm 3 mps 646 mmHg 12%
    14:00 +42°C° 0 mm 3 mps 646 mmHg 11%
    15:00 +40°C° 0 mm 3 mps 645 mmHg 12%
    16:00 +39°C° 0 mm 3 mps 645 mmHg 13%
    17:00 +39°C° 0 mm 3 mps 644 mmHg 14%
    18:00 +36°C° 0 mm 2 mps 644 mmHg 17%
    19:00 +32°C° 0 mm 2 mps 644 mmHg 20%
    20:00 +30°C° 0 mm 1 mps 644 mmHg 23%
    21:00 +30°C° 0 mm 1 mps 644 mmHg 23%
    22:00 +29°C° 0 mm 1 mps 644 mmHg 24%
    23:00 +29°C° 0 mm 1 mps 644 mmHg 24%

    29 October, Tuesday

    Time Temperature Precipitation Wind Pressure Humidity
    00:00 +29°C° 0 mm 1 mps 644 mmHg 24%
    01:00 +28°C° 0 mm 1 mps 644 mmHg 25%
    02:00 +28°C° 0 mm 1 mps 644 mmHg 25%
    03:00 +28°C° 0 mm 2 mps 644 mmHg 25%
    04:00 +28°C° 0 mm 2 mps 645 mmHg 25%
    05:00 +27°C° 0 mm 3 mps 645 mmHg 25%
    06:00 +29°C° 0 mm 3 mps 646 mmHg 22%
    07:00 +30°C° 0 mm 2 mps 647 mmHg 19%
    08:00 +31°C° 0 mm 2 mps 647 mmHg 15%
    09:00 +35°C° 0 mm 2 mps 648 mmHg 14%
    10:00 +37°C° 0 mm 2 mps 648 mmHg 13%
    11:00 +40°C° 0 mm 2 mps 649 mmHg 12%
    12:00 +40°C° 0 mm 2 mps 648 mmHg 12%
    13:00 +40°C° 0 mm 1 mps 647 mmHg 11%
    14:00 +40°C° 0 mm 1 mps 646 mmHg 11%
    15:00 +39°C° 0 mm 2 mps 646 mmHg 15%
    16:00 +37°C° 0 mm 4 mps 645 mmHg 19%
    17:00 +35°C° 0 mm 5 mps 645 mmHg 22%
    18:00 +32°C° 0 mm 6 mps 645 mmHg 35%
    19:00 +28°C° 0 mm 7 mps 645 mmHg 47%
    20:00 +24°C° 0 mm 8 mps 646 mmHg 59%
    21:00 +23°C° 0 mm 8 mps 646 mmHg 64%
    22:00 +22°C° 0 mm 8 mps 646 mmHg 69%
    23:00 +19°C° 0 mm 9 mps 647 mmHg 74%
    Show more